www.pogodaiklimat.ru

Погода и климат >> Архив погоды >> Россия >> Крым >> Феодосия


АРХИВ ПОГОДЫ в Феодосии

Время (UTC), дата Ветер
(напр.,м/с)
 
Видим.   Явления Облачность Т
(С)
Тd
(С)
f
(%)
Тe
(С)
Тes
(С)
Комфортность P
(гПа)
Po
(гПа)
Тmin
(С)
Tmax
(С)
R
(мм)
R24
(мм)
S
(см)
00 15.09 СЗ 2 10 км 8/0
[Ac trans Ci fib]
+20.4 +15.4 73 +24 +24 комфорт 1020.4 1017.3
03 15.09 СЗ 2 10 км 4/0
[Ac lent]
+17.3 +12.4 73 +18 +18 по сезону 1021.0 1017.8 +17.3
06 15.09 С 3 10 км 6/6 600 м
[Sc]
+19.6 +13.7 69 +22 +23 комфорт 1022.2 1019.0 +16.7
09 15.09 СВ 3 10 км 3/3 600 м
[Cu hum]
+23.6 +11.0 45 +25 +33 комфорт 1024.3 1021.3
12 15.09 СВ 3 10 км 3/3 600 м
[Cu hum]
+23.4 +8.3 38 +25 +30 комфорт 1023.0 1020.0
15 15.09 С 2 10 км ясно +19.8 +5.8 40 +21 +21 комфорт 1023.1 1020.0
18 15.09 З 1 10 км ясно +16.0 +6.4 53 +17 +17 по сезону 1023.1 1020.0 +24.0
21 15.09 З 2 10 км ясно +14.7 +4.1 49 +15 +15 по сезону 1021.8 1018.7
00 16.09 З 2 10 км ясно +13.9 +1.8 44 +14 +14 по сезону 1021.8 1018.7
03 16.09 СЗ 1 20 км ясно +15.0 +2.0 41 +16 +16 по сезону 1019.8 1016.6 +13.9
06 16.09 СЗ 2 20 км ясно +21.0 +6.5 39 +23 +27 комфорт 1020.4 1017.3 +13.9
09 16.09 В 2 20 км ясно +24.6 +12.2 46 +26 +37 жарко 1019.0 1016.0
12 16.09 Ю 2 20 км ясно +25.2 +12.1 44 +27 +34 жарко 1016.3 1013.3
15 16.09 ЮЗ 3 20 км ясно +21.6 +10.7 50 +23 +24 комфорт 1015.0 1012.0
18 16.09 З 2 20 км ясно +19.4 +15.9 80 +22 +22 комфорт 1015.1 1012.0 +26.0
21 16.09 СЗ 1 20 км ясно +16.0 +12.4 79 +17 +17 по сезону 1015.1 1012.0
00 17.09 З 1 20 км ясно +14.8 +11.4 80 +15 +15 по сезону 1015.1 1012.0
03 17.09 З 1 20 км ясно +14.8 +13.3 91 +15 +15 по сезону 1012.9 1009.7 +14.5
06 17.09 В 1 10 км ясно +21.4 +14.8 66 +24 +29 комфорт 1013.7 1010.7 +14.5
09 17.09 Ю 3 20 км 3/0
[Ac lent]
+24.0 +14.9 57 +27 +34 жарко 1011.8 1008.7
12 17.09 ЮЗ 4
{10}
20 км 8/3 600 м
[Cb calv Ac trans Ci fib]
+25.0 +16.3 58 +28 +31 жарко 1010.5 1007.4
15 17.09 Ю 2
{10}
10 км 8/4 600 м
[Cb calv Ac trans Ci fib]
+23.9 +20 +20 по сезону 1011.0 1008.0
18 17.09 З 1 20 км 4/0
[Ci fib]
+21.1 +17.4 79 +25 +25 комфорт 1011.1 1008.0 +26.0
21 17.09 штиль 0 20 км 8/0
[Ac trans]
+20.8 +16.2 75 +24 +24 комфорт 1012.3 1009.3
00 18.09 З 1 20 км 9/0
[Ac trans]
+20.0 +16.2 79 +24 +24 комфорт 1012.3 1009.3
03 18.09 штиль 0 20 км 8/0
[Ac trans]
+18.2 +14.8 81 +18 +18 тепло 1010.9 1007.7 +18.2
06 18.09 Ю 5-11
{11}
10 км 6/3 600 м
[Sc diur, vesp Ac trans]
+23.0 +19.7 82 +30 +31 очень
душно
1009.9 1006.8 +18.2
09 18.09 Ю 6-11
{13}
10 км 8/3 600 м
[Cb calv Ac trans]
+25.2 +19.3 70 +30 +32 душно 1011.0 1008.0
12 18.09 Ю 4
{12}
10 км 8/6 600 м
[Cb cap Ac trans]
+25.0 +20.1 74 +31 +32 очень
душно
1009.4 1006.3
15 18.09 СЗ 6-11
{12}
10 км {ливн. осадки} 8/8 600 м
[Cb cap]
+22.8 +3.8 29 +23 +23 комфорт 1012.5 1009.4 0.0
18 18.09 СЗ 6-12
{13}
10 км {ливн. осадки} 8/8 600 м
[Cb cap]
+18.4 +6.1 44 +18 +18 тепло 1014.8 1011.6 +26.6 0.0
21 18.09 СЗ 4
{12}
10 км 8/8 600 м
[Cb cap]
+16.8 +5.7 48 +16 +16 по сезону 1019.1 1016.0
00 19.09 СЗ 3
{10}
10 км 4/4 600 м
[Sc]
+14.1 +2.8 46 +13 +13 по сезону 1019.3 1016.1
03 19.09 СЗ 3
{10}
10 км ясно +11.8 +2.9 54 +10 +10 холодно 1020.4 1017.1 +11.8
06 19.09 СЗ 3 10 км 3/0
[Ac lent]
+15.4 +5.6 52 +15 +17 прохладно 1023.1 1020.0 +11.5
09 19.09 СЗ 3 20 км 8/0
[Ac lent]
+18.4 +3.4 37 +19 +21 по сезону 1023.1 1020.0
12 19.09 С 2 20 км 8/8 600 м
[Sc]
+19.4 +3.9 36 +20 +23 по сезону 1021.8 1018.7
15 19.09 СВ 2 20 км 8/8 600 м
[Sc]
+17.8 +7.5 51 +18 +18 по сезону 1021.8 1018.7
18 19.09 З 2 20 км 4/4 600 м
[Sc]
+14.0 +7.7 66 +14 +14 прохладно 1021.1 1017.9 +19.4
21 19.09 ЮЗ 1 20 км 8/8 600 м
[Sc]
+13.9 +9.7 76 +14 +14 по сезону 1021.8 1018.7
00 20.09 штиль 0 20 км 10/10 600 м
[Sc]
+14.0 +9.0 72 +14 +14 по сезону 1020.4 1017.3
03 20.09 СЗ 2 20 км 10/10 600 м
[Sc]
+14.5 +7.1 61 +14 +14 прохладно 1019.1 1016.0 +13.8
06 20.09 СЗ 3 10 км слаб. ливневой дождь 10/10 600 м
[Cb cap]
+14.8 +8.9 68 +14 +14 прохладно 1019.1 1016.0 +13.8 0.1
09 20.09 З 1 10 км слаб. ливневой дождь 10/10 600 м
[Cb cap]
+15.6 +8.8 64 +16 +16 прохладно 1019.1 1016.0
12 20.09 СЗ 1 10 км слаб. ливневой дождь 10/10 600 м
[Cb cap]
+14.2 +10.8 80 +15 +15 холодно 1017.1 1013.9
15 20.09 З 1 10 км {ливн. осадки} 9/9 600 м
[Cb cap]
+15.3 +8.1 62 +16 +16 прохладно 1016.8 1013.6 1
18 20.09 СЗ 1 10 км {ливн. осадки} 6/0
[Ac trans]
+13.0 +8.4 74 +13 +13 прохладно 1018.1 1014.9 +15.8 1
21 20.09 З 2 10 км ясно +11.2 +4.5 63 +10 +10 холодно 1018.6 1015.3
00 21.09 СЗ 2 10 км ясно +10.0 +6.3 78 +9 +9 холодно 1019.2 1016.0
03 21.09 З 2 10 км ясно +9.8 +5.4 74 +8 +8 очень
холодно
1019.4 1016.1 +9.8
06 21.09 З 3 10 км 8/4 600 м
[Cu med, cong Ac trans]
+13.2 +4.0 54 +12 +13 холодно 1020.7 1017.4 +8.9
09 21.09 С 5-10
{10}
20 км 3/3 600 м
[Cu med, cong]
+15.6 +2.7 42 +15 +19 холодно 1021.8 1018.7
12 21.09 СЗ 4 20 км 7 баллов +16.2 +0.3 34 +16 +17 холодно 1021.8 1018.7
15 21.09 С 3
{10}
20 км 3/3 600 м
[Cu hum]
+14.6 +1.0 40 +14 +14 холодно 1021.9 1018.7
18 21.09 СЗ 3 20 км ясно +11.7 +0.8 47 +10 +10 холодно 1024.5 1021.3 +17.9
21 21.09 З 2 20 км ясно +11.2 +3.7 60 +10 +10 холодно 1025.9 1022.7

 

Местоположение метеостанции Феодосия (Крым, Россия): широта 45.03 долгота 35.38 высота над уровнем моря 26 м.

В архиве по умолчанию представлена погода в Феодосии за последнюю неделю. Архивные данные за месяц целиком и за предыдущие месяцы, начиная с января 2011 года, Вы можете получить, выбрав интересующий диапазон дат из раскрывающегося списка и нажав кнопку "Ввод!".


*Определитесь, кто Вы:
робот инопланетянин человек

Внимание! Время в таблицах - всемирное. Для получения местного времени необходимо прибавить поправку, которая равна 3 ч.

Смотрите также архив погоды в соседних городах и на ближайших метеорологических станциях:

Погода в Владиславовке (Крым, Россия) (16 км)
Погода в Карадаге (Крым, Россия) (20 км)
Погода в Мысовом (Крым, Россия) (58 км)
Погода в Белогорске (Крым, Россия) (61 км)
Погода в Нижнегорском (Крым, Россия) (69 км)
Погода на Ангарском Перевале (Крым, Россия) (87 км)
Погода в Стрелковом (Херсонская область, Украина) (87 км)
Погода в Алуште (Крым, Россия) (87 км)
Погода в Керчи (Крым, Россия) (91 км)
Погода в Симферополе город (Крым, Россия) (100 км)

Пояснения к столбцам:

Ветер - указаны скорость ветра в м/с - средняя за 10 мин, порывы в срок и между сроками (в фигурных скобках) и направление, откуда дует ветер: С - северный, СВ - северо-восточный, В - восточный, ЮВ - юго-восточный, Ю - южный, ЮЗ - юго-западный, З - западный, СЗ - северо-западный.
Видимость - горизонтальная дальность видимости в метрах или километрах. При видимости от 1 до 10 км при отсутствии осадков обычно наблюдается дымка, при ухудшении видимости до 1 км и менее - туман. В сухую погоду видимость может ухудшаться дымом, пылью или мглою.
Явления - указаны атмосферные явления, наблюдавшиеся в срок или в последний час перед сроком; фигурными скобками обозначены явления, наблюдавшиеся между сроками (за 1-3 часа до срока); квадратными скобками обозначены град или гололедные отложения с указанием их диаметра в мм.
Облачность - указаны через наклонную черту общая и нижняя облачность в баллах и высота нижней границы облаков в метрах; квадратными скобками обозначены формы облаков: Ci - перистые, Cs - перисто-слоистые, Cc - перисто-кучевые, Ac - высококучевые, As - высокослоистые, Sc - слоисто-кучевые, Ns - слоисто-дождевые, Cu - кучевые, Cb - кучево-дождевые. Подробнее классификацию облаков см. в Атласе облаков (PDF).
T - Температура воздуха - температура, измеренная на высоте 2 м над землей.
Td - Температура точки росы - температура, при понижении до которой содержащийся в воздухе водяной пар достигнет насыщения.
f - Относительная влажность воздуха - влажноcть воздуха, измеренная на высоте 2 м над землей.
Te - Эффективная температура - температура, которую ощущает одетый по сезону человек в тени. Характеристика душности погоды. При расчете учитывается влияние влажности воздуха и скорости ветра на теплоощущения человека.
Tes - Эффективная температура на солнце - температура, которую ощущает человек, с поправкой на солнечный нагрев. Характеристика знойности погоды. Зависит от высоты солнца над горизонтом, облачности и скорости ветра. Ночью, в пасмурную погоду, а также при ветре 12 м/с и более поправка равна нулю.
P - Атмосферное давление - приведенное к уровню моря атмосферное давление.
Po - Атмосферное давление - измеренное на уровне метеостанции атмосферное давление.
Tmin - Минимальная температура - минимум температуры воздуха на высоте 2 м над землей.
Tmax - Максимальная температура - максимум температуры воздуха на высоте 2 м над землей.
R - Количество осадков - Количество выпавших осадков за период времени, мм. При наведении курсора мыши на число - период времени, за который выпало указанное количество осадков.
R24 - Количество осадков - Количество выпавших осадков за 24 часа, мм.
S - Снежный покров - Высота снежного покрова, см. При наведении курсора мыши на число - состояние снежного покрова и степень покрытия местности в баллах.